Terminal Aerodrome Forecast
Issued by NWS Greer, SC

Home | Current Version | Previous Version | Text Only | Print | Product List | Glossary On
Versions: 1 2 3 4 5 6 7 8 9 10 11 12 13 14 15 16 17 18 19 20 21 22 23 24 25 26 27 28 29 30 31 32 33 34 35 36 37 38 39 40 41 42 43 44 45
000
FTUS42 KGSP 270900 AAA
TAFCLT
TAF AMD
KCLT 270908Z 2709/2806 36003KT P6SM SKC
      TEMPO 2710/2712 5SM BR
     FM272300 31003KT P6SM SKC
     FM280300 00000KT P6SM SKC=

USA.gov is the U.S. government's official web portal to all federal, state and local government web resources and services.